GW2402 Weather Reports


Display with metric or nautical units.
time (UTC)temp
F
wind
direction
speed
MPH
gust
MPH
rain 1hr
in
rain 24hr
in
rain mn
in
humidity
%
barometer
mb
20260509003057 78 0 0.0 1.0 0.00 0.00 0.00 80 1008.3
20260509001543 79 0 0.0 0.0 0.00 0.00 0.00 79 1008.6
20260509000052 79 0 0.0 1.0 0.00 0.00 0.00 78 1008.5
20260508234550 80 0 0.0 1.0 0.00 0.00 0.00 78 1008.4
20260508233053 80 0 0.0 1.0 0.00 0.00 0.00 77 1008.3
20260508231554 80 284 0.0 1.0 0.00 0.00 0.00 76 1008.4
20260508230132 80 0 0.0 0.0 0.00 0.00 0.00 76 1008.4
20260508224553 81 0 0.0 1.0 0.00 0.00 0.00 75 1008.3
20260508223044 81 0 0.0 0.0 0.00 0.00 0.00 76 1008.2
20260508221554 80 0 0.0 1.0 0.00 0.00 0.00 76 1008.4
20260508220053 81 0 0.0 1.0 0.00 0.00 0.00 75 1008.7
20260508214547 81 0 0.0 1.0 0.00 0.00 0.00 75 1008.9
20260508213048 80 0 0.0 0.0 0.00 0.00 0.00 76 1008.8
20260508211543 80 0 0.0 1.0 0.00 0.00 0.00 76 1009.1
20260508210042 80 0 0.0 0.0 0.00 0.00 0.00 76 1009.4
20260508204553 80 0 0.0 0.0 0.00 0.00 0.00 75 1009.6
20260508203048 80 0 0.0 0.0 0.00 0.00 0.00 76 1009.7
20260508201546 80 0 0.0 1.0 0.00 0.00 0.00 75 1009.9
20260508200047 80 0 0.0 1.0 0.00 0.00 0.00 75 1010.2
20260508194603 80 0 0.0 1.0 0.00 0.00 0.00 75 1010.4
20260508193105 79 261 0.0 1.0 0.00 0.00 0.00 74 1010.4
20260508191550 79 0 0.0 1.0 0.00 0.00 0.00 74 1010.8
20260508190103 79 0 0.0 1.0 0.00 0.00 0.00 75 1010.8
20260508184546 78 257 0.0 1.0 0.00 0.00 0.00 76 1010.9
20260508183045 77 0 0.0 1.0 0.00 0.00 0.00 77 1011.2
20260508181553 77 0 0.0 1.0 0.00 0.00 0.00 76 1011.5
20260508180049 76 262 0.0 1.0 0.00 0.00 0.00 76 1011.8
20260508174549 76 0 0.0 0.0 0.00 0.00 0.00 76 1012.0
20260508173047 76 0 0.0 0.0 0.00 0.00 0.00 77 1012.1
20260508171546 76 0 0.0 1.0 0.00 0.00 0.00 75 1012.1
20260508170049 77 271 0.0 1.0 0.00 0.00 0.00 73 1012.1
20260508164547 76 0 0.0 0.0 0.00 0.00 0.00 74 1012.1
20260508163100 74 105 0.0 1.0 0.00 0.00 0.00 75 1012.1
20260508161555 72 0 0.0 1.0 0.00 0.00 0.00 77 1012.7
20260508160047 71 0 0.0 0.0 0.00 0.00 0.00 77 1013.1
20260508154548 70 0 0.0 1.0 0.00 0.00 0.00 78 1013.1
20260508153100 69 0 0.0 1.0 0.00 0.00 0.00 78 1013.0
20260508151548 68 0 0.0 1.0 0.00 0.00 0.00 78 1013.4
20260508150045 67 0 0.0 0.0 0.00 0.00 0.00 80 1013.6
20260508144550 67 0 0.0 1.0 0.00 0.00 0.00 79 1013.5
20260508143108 66 0 0.0 0.0 0.00 0.00 0.00 81 1013.3
20260508141540 65 0 0.0 0.0 0.00 0.00 0.00 82 1013.4
20260508140051 64 0 0.0 0.0 0.00 0.00 0.00 81 1013.7
20260508134546 64 0 0.0 0.0 0.00 0.00 0.00 81 1013.8
20260508133043 64 0 0.0 0.0 0.00 0.00 0.00 80 1014.0
20260508131542 64 0 0.0 0.0 0.00 0.00 0.00 79 1013.7
20260508130038 64 0 0.0 0.0 0.00 0.00 0.00 80 1013.8
20260508124547 64 0 0.0 1.0 0.00 0.00 0.00 79 1013.7
20260508123049 64 0 0.0 1.0 0.00 0.00 0.00 79 1013.6
20260508121548 64 0 0.0 1.0 0.00 0.00 0.00 79 1013.8
20260508120051 64 0 0.0 0.0 0.00 0.00 0.00 79 1014.2
20260508114556 64 0 0.0 0.0 0.00 0.00 0.00 79 1014.3
20260508113101 64 0 0.0 0.0 0.00 0.00 0.00 79 1014.2
20260508111546 64 0 0.0 0.0 0.00 0.00 0.00 78 1014.3
20260508110045 64 0 0.0 0.0 0.00 0.00 0.00 78 1013.9
20260508104540 64 0 0.0 0.0 0.00 0.00 0.00 78 1014.2
20260508103050 64 0 0.0 0.0 0.00 0.00 0.00 78 1014.0
20260508101548 64 0 0.0 0.0 0.00 0.00 0.00 78 1014.0
20260508094545 64 0 0.0 0.0 0.00 0.00 0.00 78 1014.0
20260508093041 64 0 0.0 0.0 0.00 0.00 0.00 78 1014.3
20260508091605 64 0 0.0 0.0 0.00 0.00 0.00 78 1014.3
20260508090051 64 0 0.0 0.0 0.00 0.00 0.00 77 1013.9
20260508084549 64 0 0.0 0.0 0.00 0.00 0.00 78 1014.1
20260508083046 64 0 0.0 0.0 0.00 0.00 0.00 78 1014.0
20260508081608 64 0 0.0 0.0 0.00 0.00 0.00 78 1014.1
20260508080050 64 0 0.0 0.0 0.00 0.00 0.00 77 1014.3
20260508074551 64 0 0.0 0.0 0.00 0.00 0.00 77 1014.1
20260508073056 64 0 0.0 1.0 0.00 0.00 0.00 77 1014.2
20260508071551 64 0 0.0 0.0 0.00 0.00 0.00 77 1013.8
20260508070052 64 0 0.0 0.0 0.00 0.00 0.00 77 1014.0
20260508064549 64 0 0.0 0.0 0.00 0.00 0.00 77 1014.5
20260508063055 64 0 0.0 0.0 0.00 0.00 0.00 77 1015.1
20260508061548 63 0 0.0 0.0 0.00 0.00 0.00 77 1014.9
20260508060100 63 0 0.0 0.0 0.00 0.00 0.00 76 1014.7
20260508054636 63 0 0.0 0.0 0.00 0.00 0.00 76 1015.2
20260508053053 63 0 0.0 1.0 0.00 0.00 0.00 76 1015.1
20260508051552 63 0 0.0 0.0 0.00 0.00 0.00 76 1014.4
20260508050059 63 0 0.0 0.0 0.00 0.00 0.00 77 1015.3
20260508044547 63 0 0.0 0.0 0.00 0.00 0.00 77 1014.7
20260508043052 63 0 0.0 0.0 0.00 0.00 0.00 78 1014.6
20260508041545 63 0 0.0 0.0 0.00 0.00 0.00 78 1014.8
20260508040043 63 0 0.0 0.0 0.00 0.00 0.00 77 1015.3
20260508034547 63 0 0.0 0.0 0.00 0.00 0.00 77 1015.6
20260508033037 63 0 0.0 1.0 0.00 0.00 0.00 77 1015.9
20260508031549 63 0 0.0 0.0 0.00 0.00 0.00 77 1016.0
20260508030046 63 0 0.0 0.0 0.00 0.00 0.00 77 1015.1
20260508024544 64 0 0.0 0.0 0.00 0.00 0.00 77 1015.2
20260508023046 64 0 0.0 0.0 0.00 0.00 0.00 77 1014.1
20260508021547 64 0 0.0 0.0 0.00 0.00 0.00 76 1014.0
20260508020101 64 0 0.0 1.0 0.00 0.00 0.00 75 1013.6
20260508014547 65 0 0.0 1.0 0.00 0.00 0.00 74 1013.7
20260508013042 65 98 0.0 1.0 0.00 0.00 0.00 73 1013.9
20260508011545 65 0 0.0 1.0 0.00 0.00 0.00 71 1014.5
20260508010051 65 0 0.0 1.0 0.00 0.00 0.00 71 1013.9
20260508004553 66 0 0.0 1.0 0.00 0.00 0.00 70 1014.7